Flag for Saudi Arabia Weather past 2 weeks in Riyadh, Saudi Arabia

Now
95 °F

Sunny.


Feels Like: 90 °F
Forecast: 76 / 94 °F
Wind: 13 mph from South

Location: King Khaled International Airport

Current Time: Oct 20, 2014 at 2:01:36 PM

Latest Report: Oct 20, 2014 at 1:00 PM


Visibility: 5 mi

Pressure: 29.92 "Hg

Humidity: 10%

Dew point: 30 °F

Location of RiyadhLocation

Historic Weather in Riyadh — Graph

°F

Riyadh temperature yesterday

Maximum temperature yesterday: 93 °F (at 3:00 PM)
Minimum temperature yesterday: 72 °F (at 4:00 AM)
Average temperature yesterday: 82 °F

Past Weeks' High & Low Weather Summary

 TemperatureHumidityPressure
High100 °F (Oct 6, 1:00 PM)83% (Oct 18, 7:00 AM)30.12 "Hg (Oct 18, 7:00 AM)
Low68 °F (Oct 11, 6:00 AM)6% (Oct 10, 6:00 PM)29.92 "Hg (Oct 19, 2:00 PM)
Average85 °F20%30.01 "Hg
* Reported Oct 5 1:00 PM — Oct 20 1:00 PM, Riyadh, Weather by CustomWeather, © 2014

Note: Actual official high and low records may vary slightly from our data, if they occured in-between our weather recording intervals... More about our weather records

Advertising

Riyadh weather history for previous 24 hours

 ConditionsComfort  
Time TempWeatherWind HumidityBarometerVisibility
1:00 PM
Oct 20
95 °FSunny.13 mph10%29.92 "Hg5 mi
12:00 PM93 °FSunny.13 mph11%29.95 "Hg5 mi
11:00 AM91 °FClear.12 mph12%29.98 "Hg5 mi
10:00 AM88 °FSunny.13 mph15%30.01 "Hg10 mi
9:00 AM84 °FSunny.12 mph16%29.98 "Hg10 mi
8:00 AM81 °FSunny.9 mph21%29.98 "Hg10 mi
6:00 AM68 °FSunny.2 mph38%29.95 "Hg5 mi
5:00 AM70 °FClear.2 mph35%29.95 "Hg10 mi
4:00 AM73 °FClear.2 mph33%29.92 "Hg10 mi
3:00 AM73 °FClear.5 mph33%29.92 "Hg10 mi
2:00 AM75 °FClear.3 mph29%29.92 "Hg10 mi
1:00 AM81 °FClear.7 mph24%29.95 "Hg10 mi
12:00 AM81 °FClear.6 mph24%29.95 "Hg10 mi
11:00 PM
Oct 19
82 °FClear.6 mph23%29.95 "Hg10 mi
10:00 PM86 °FClear.9 mph20%29.95 "Hg10 mi
9:00 PM82 °FClear.5 mph25%29.95 "Hg10 mi
8:00 PM84 °FClear.6 mph23%29.95 "Hg10 mi
7:00 PM86 °FClear.7 mph20%29.95 "Hg10 mi
6:00 PM88 °FClear.7 mph18%29.92 "Hg10 mi
5:00 PM91 °FSunny.8 mph17%29.92 "Hg10 mi
4:00 PM93 °FSunny.8 mph17%29.92 "Hg10 mi
3:00 PM93 °FSunny.10 mph21%29.92 "Hg10 mi
2:00 PM91 °FSunny.14 mph24%29.92 "Hg10 mi
Weather by CustomWeather, © 2014

See weather overviewHow to use our weather pages